星链-5532 (STARLINK-5532 )

导读

STARLINK-5532是美国太空探索技术公司(SpaceX)星链互联网卫星星座中的一颗卫星,于2023年3月3日发射。星链计划旨在构建全球卫星互联网,为全球提供高速互联网服务,这颗卫星加入星座后,进一步拓展了星链的网络覆盖能力与服务规模。

基本信息
目录编号:
55760
目录名称:
STARLINK-5532
国际标识:
2023-028V
轨道中心:
EARTH
卫星名称:
星链-5532
卫星全名:
星链-5532 (STARLINK-5532 )
卫星状态:
在轨 (已飞行1282 天)
发射日期:
2023-03-03 UTC
国别 :
美国 (US)
星等 :
--
轨道信息
数据来源 国际轨道数据
星历时间: 2026-09-05T11:05:19+0800
7小时前
查看轨道信息
半长轴: 6950.188km
偏心率: 0.00028
轨道倾角: 70.000°
近地点辐角 270.324°
升交点赤经 151.816°
平近点角 89.760°
近地点: 570.104km
远地点: 573.998km
周期: 96.107分钟
每日圈数: 14.983317
详细信息
固有亮度:
5
最大亮度:
2.5
卫星平台:
Starlink v1.5
覆盖范围:
全球
运营商:
太空探索技术公司
运营商所在国:
美国
制造商(研发单位):
太空探索技术公司
制造商所在国:
美国
使用方式:
暂无
卫星简介
星链(Starlink)计划是由太空探索技术公司(SpaceX)提出的一个巨型低轨卫星互联网星座项目,计划在2019年至2024年间在太空搭建由约1.2万颗卫星组成的“星链”网络,其中1584颗将部署在地球上空550千米处的近地轨道,并从2020年开始工作。该卫星仍在工作。
2D轨道图
3D轨道图
轨道高度分析图
轨道倾角分析图
轨道综合分析图
查看轨道综合分析图
交会数据列表
事件ID 空间交会对象 最接近时刻(TCA) 交会距离 交会风险概率(CRP) 交会风险指数(CRI) 操作
CDM_260906-024505-576006-141922
2026-09-06T
02:45:05+0000
0.397 km
远距离
2.935393E-4 高风险 0.84
CDM_260905-102904-227105-576023
2026-09-05T
10:29:13+0000
0.971 km
远距离
3.034088E-5 中风险 0.65
CDM_260907-080904-488605-576022
OBJECT H (44886)
2026-09-07T
08:09:43+0000
1.616 km
极远距离
5.319371E-6 低风险 0.5
CDM_260905-105205-576006-748324
2026-09-05T
10:52:15+0000
2.513 km
极远距离
1.748914E-6 低风险 0.4
CDM_260905-103704-996105-576024
2026-09-05T
10:37:12+0000
2.280 km
极远距离
1.487824E-6 低风险 0.38
CDM_260906-174403-915205-576023
2026-09-06T
17:44:56+0000
2.916 km
极远距离
1.396937E-6 低风险 0.38